Location: Unspecified
(0.0000°N, 0.0000°E)
Time: 01:19:17
(UTC+00:00)

N. Korean satellite - Pass Details

Date: 19 January 2021
Orbit: 453 x 502 km, 97.2° (Epoch: 16 January)

Event Time Altitude Azimuth Distance (km) Brightness Sun altitude
Rises 04:29:04 0° 34° (NNE) 2,458 10.3 -23.7°
Reaches altitude 10° 04:31:27 10° 51° (NE) 1,584 9.5 -23.2°
Maximum altitude 04:34:03 21° 101° (E) 1,079 9.1 -22.6°
Drops below altitude 10° 04:36:40 10° 151° (SSE) 1,586 9.8 -22.0°
Sets 04:39:02 0° 168° (SSE) 2,462 10.6 -21.4°
